Hourly Data Report for September 22, 2017

All times are specified in Local Standard Time (LST). Add 1 hour to adjust for Daylight Saving Time where and when it is observed.

EDMUNDSTON
NEW BRUNSWICK

47°25'00.000" N
68°19'28.040" W
154.20 m
8101303
71590
ERM

Download Data

Hourly Data (September 2017)
Hourly Data Report for September 22, 2017
Temp Definition
°C
Dew Point Temp Definition
°C
Rel Hum Definition
%
Wind Dir Definition
10's deg

Wind Spd Definition
km/h
Visibility Definition
km
Stn Press Definition
kPa
Hmdx Definition


Wind Chill Definition


Weather Definition


TIME
00:00 4.2 3.2 93 36 1   100.43     LegendNANA
01:00 3.7 2.9 94 0 1   100.46     LegendNANA
02:00 3.3 2.5 95   0   100.48     LegendNANA
03:00 3.0 2.2 95   0   100.46     LegendNANA
04:00 2.6 1.9 95   0   100.45     LegendNANA
05:00 2.7 2.0 95 26 2   100.47     LegendNANA
06:00 2.2 1.5 95 35 1   100.49     LegendNANA
07:00 3.1 2.5 96   0   100.50     LegendNANA
08:00 7.0 5.6 91   0   100.49     LegendNANA
09:00 10.8 7.2 78   0   100.50     LegendNANA
10:00 15.1 8.5 65 14 7   100.46     LegendNANA
11:00 18.4 9.4 56 15 7   100.38     LegendNANA
12:00 20.8 9.5 48 21 4   100.33     LegendNANA
13:00 22.5 8.5 41 16 6   100.29     LegendNANA
14:00 23.5 8.0 37 24 5   100.20     LegendNANA
15:00 24.6 8.7 37 15 5   100.13 25   LegendNANA
16:00 24.6 8.5 36 17 5   100.07 25   LegendNANA
17:00 23.2 10.1 43 14 7   100.05 25   LegendNANA
18:00 20.6 10.9 54 11 4   99.99     LegendNANA
19:00 13.8 10.6 81 3 2   99.97     LegendNANA
20:00 11.9 9.5 86   0   99.98     LegendNANA
21:00 10.2 8.9 92 0 1   99.97     LegendNANA
22:00 9.0 7.7 92   0   100.00     LegendNANA
23:00 8.2 7.2 94 0 1   99.95     LegendNANA

Notes on Data Quality.

Legend

  • E = Estimated
  • M = Missing
  • NA = Not Available
  • ‡ = Partner data that is not subject to review by the National Climate Archives
Date modified: